Weather History for Windom, MN

Change the Weather History Date:

Monday, September 10, 2012

  Actual Average Record
Temperature  
Mean Temperature 68 °F -  
Max Temperature 84 °F 77 °F 91 °F (1978)
Min Temperature 53 °F 51 °F 34 °F (1948)
Cooling Degree Days 4    
Growing Degree Days 18 (Base 50)    
Moisture  
Dew Point 46 °F    
Average Humidity 47    
Maximum Humidity 77    
Minimum Humidity 23    
Precipitation  
Precipitation 0.00 in - - ()
Sea Level Pressure  
Sea Level Pressure 29.94 in    
Wind  
Wind Speed 12 mph (South)    
Max Wind Speed 30 mph    
Max Gust Speed 37 mph    
Visibility 10 miles    
Events      
Averages and records for this station are not official NWS values.
T = Trace of Precipitation, MM = Missing Value Source: NWS Daily Summary

Daily Weather History Graph

Daily Weather History Graph

Search for Another Location

Airport:

Trip Planner

Search our weather history database for the weather conditions in past years. The results will help you decide how hot, cold, wet, or windy it might be!

Date:

Astronomy

Sep. 10, 2012 Rise Set
Actual Time 6:54 AM CDT 7:39 PM CDT
Civil Twilight 6:25 AM CDT 8:08 PM CDT
Nautical Twilight 5:50 AM CDT 8:42 PM CDT
Astronomical Twilight 5:14 AM CDT 9:18 PM CDT
Moon 1:07 AM CDT (9/10) 4:17 PM CDT (9/10)
Length of Visible Light 13h 42m
Length of Day
12h 44m
Waning Crescent, 30% of the Moon is Illuminated
Sep 10
Waning Crescent
Sep 15
New
Sep 22
First Quarter
Sep 29
Full
Oct 8
Last Quarter

Hourly Weather History & Observations

Time (CDT) Temp. Dew Point Humidity Pressure Visibility Wind Dir Wind Speed Gust Speed Precip Events Conditions
12:13 AM 57.2 °F 46.4 °F 67% 30.09 in 10.0 mi SSE 4.6 mph - N/A   Clear
12:33 AM 55.4 °F 46.4 °F 72% 30.09 in 10.0 mi South 4.6 mph - N/A   Clear
12:52 AM 55.4 °F 46.4 °F 72% 30.09 in 10.0 mi SSE 5.8 mph - N/A   Clear
1:13 AM 55.4 °F 46.4 °F 72% 30.09 in 10.0 mi Calm Calm - N/A   Clear
1:32 AM 53.6 °F 46.4 °F 77% 30.08 in 10.0 mi South 3.5 mph - N/A   Clear
1:52 AM 55.4 °F 46.4 °F 72% 30.08 in 10.0 mi South 4.6 mph - N/A   Clear
2:13 AM 55.4 °F 46.4 °F 72% 30.07 in 10.0 mi SSE 4.6 mph - N/A   Clear
2:33 AM 55.4 °F 46.4 °F 72% 30.07 in 10.0 mi South 4.6 mph - N/A   Clear
2:52 AM 55.4 °F 46.4 °F 72% 30.06 in 10.0 mi South 4.6 mph - N/A   Clear
3:13 AM 55.4 °F 46.4 °F 72% 30.05 in 10.0 mi South 8.1 mph - N/A   Clear
3:33 AM 55.4 °F 46.4 °F 72% 30.06 in 10.0 mi South 5.8 mph - N/A   Clear
3:52 AM 55.4 °F 46.4 °F 72% 30.05 in 10.0 mi South 5.8 mph - N/A   Clear
4:13 AM 55.4 °F 46.4 °F 72% 30.05 in 10.0 mi South 8.1 mph - N/A   Clear
4:33 AM 55.4 °F 46.4 °F 72% 30.05 in 10.0 mi South 8.1 mph - N/A   Clear
4:52 AM 55.4 °F 46.4 °F 72% 30.04 in 10.0 mi South 9.2 mph - N/A   Clear
5:33 AM 55.4 °F 46.4 °F 72% 30.04 in 10.0 mi South 10.4 mph - N/A   Clear
5:52 AM 57.2 °F 46.4 °F 67% 30.03 in 10.0 mi South 13.8 mph - N/A   Clear
6:13 AM 55.4 °F 46.4 °F 72% 30.03 in 10.0 mi South 12.7 mph 17.3 mph N/A   Clear
6:32 AM 57.2 °F 46.4 °F 67% 30.03 in 10.0 mi South 12.7 mph - N/A   Clear
6:52 AM 57.2 °F 46.4 °F 67% 30.03 in 10.0 mi South 15.0 mph - N/A   Clear
7:13 AM 57.2 °F 46.4 °F 67% 30.03 in 10.0 mi South 13.8 mph - N/A   Clear
7:32 AM 57.2 °F 46.4 °F 67% 30.03 in 10.0 mi South 15.0 mph 19.6 mph N/A   Clear
7:52 AM 59.0 °F 46.4 °F 63% 30.02 in 10.0 mi South 15.0 mph 19.6 mph N/A   Clear
8:13 AM 60.8 °F 46.4 °F 59% 30.02 in 10.0 mi South 17.3 mph 20.7 mph N/A   Clear
8:32 AM 60.8 °F 46.4 °F 59% 30.02 in 10.0 mi South 18.4 mph 25.3 mph N/A   Clear
8:52 AM 62.6 °F 46.4 °F 55% 30.01 in 10.0 mi South 16.1 mph 25.3 mph N/A   Clear
9:13 AM 64.4 °F 46.4 °F 52% 30.00 in 10.0 mi South 17.3 mph 28.8 mph N/A   Clear
9:32 AM 66.2 °F 46.4 °F 49% 30.00 in 10.0 mi SSW 19.6 mph 28.8 mph N/A   Clear
9:52 AM 68.0 °F 46.4 °F 46% 29.99 in 10.0 mi South 23.0 mph 28.8 mph N/A   Clear
10:13 AM 69.8 °F 46.4 °F 43% 29.98 in 10.0 mi SSW 25.3 mph 33.4 mph N/A   Clear
10:32 AM 69.8 °F 46.4 °F 43% 29.98 in 10.0 mi South 29.9 mph 36.8 mph N/A   Clear
10:52 AM 71.6 °F 46.4 °F 41% 29.98 in 10.0 mi South 21.9 mph 32.2 mph N/A   Clear
11:12 AM 73.4 °F 46.4 °F 38% 29.97 in 10.0 mi South 21.9 mph 29.9 mph N/A   Clear
11:32 AM 73.4 °F 46.4 °F 38% 29.96 in 10.0 mi South 24.2 mph 34.5 mph N/A   Clear
11:53 AM 75.2 °F 44.6 °F 34% 29.95 in 10.0 mi South 24.2 mph 35.7 mph N/A   Clear
12:12 PM 75.2 °F 44.6 °F 34% 29.95 in 10.0 mi South 18.4 mph 29.9 mph N/A   Clear
12:33 PM 77.0 °F 44.6 °F 32% 29.94 in 10.0 mi South 21.9 mph 29.9 mph N/A   Clear
12:53 PM 78.8 °F 44.6 °F 30% 29.93 in 10.0 mi South 23.0 mph 31.1 mph N/A   Clear
1:12 PM 78.8 °F 44.6 °F 30% 29.93 in 10.0 mi South 19.6 mph 34.5 mph N/A   Clear
1:33 PM 78.8 °F 44.6 °F 30% 29.92 in 10.0 mi South 18.4 mph 29.9 mph N/A   Clear
2:12 PM 82.4 °F 44.6 °F 26% 29.90 in 10.0 mi South 20.7 mph 32.2 mph N/A   Clear
2:33 PM 82.4 °F 44.6 °F 26% 29.89 in 10.0 mi South 23.0 mph 28.8 mph N/A   Clear
2:53 PM 82.4 °F 44.6 °F 26% 29.88 in 10.0 mi South 21.9 mph 28.8 mph N/A   Clear
3:12 PM 82.4 °F 44.6 °F 26% 29.87 in 10.0 mi South 18.4 mph 32.2 mph N/A   Clear
3:33 PM 82.4 °F 44.6 °F 26% 29.86 in 10.0 mi South 17.3 mph 27.6 mph N/A   Clear
3:53 PM 84.2 °F 44.6 °F 25% 29.86 in 10.0 mi South 20.7 mph 29.9 mph N/A   Clear
4:12 PM 84.2 °F 42.8 °F 23% 29.85 in 10.0 mi South 19.6 mph 31.1 mph N/A   Clear
4:33 PM 82.4 °F 44.6 °F 26% 29.85 in 10.0 mi South 18.4 mph 27.6 mph N/A   Clear
4:53 PM 82.4 °F 44.6 °F 26% 29.84 in 10.0 mi SSE 19.6 mph 28.8 mph N/A   Clear
5:12 PM 84.2 °F 44.6 °F 25% 29.83 in 10.0 mi SSE 18.4 mph 28.8 mph N/A   Clear
5:33 PM 82.4 °F 44.6 °F 26% 29.83 in 10.0 mi South 19.6 mph 32.2 mph N/A   Clear
5:53 PM 82.4 °F 44.6 °F 26% 29.82 in 10.0 mi South 19.6 mph 29.9 mph N/A   Clear
6:12 PM 82.4 °F 44.6 °F 26% 29.82 in 10.0 mi South 13.8 mph 31.1 mph N/A   Clear
6:33 PM 82.4 °F 44.6 °F 26% 29.81 in 10.0 mi South 21.9 mph 32.2 mph N/A   Clear
6:53 PM 80.6 °F 44.6 °F 28% 29.82 in 10.0 mi South 15.0 mph 27.6 mph N/A   Clear
7:12 PM 78.8 °F 44.6 °F 30% 29.82 in 10.0 mi South 15.0 mph 21.9 mph N/A   Clear
7:32 PM 78.8 °F 46.4 °F 32% 29.81 in 10.0 mi South 15.0 mph 23.0 mph N/A   Clear
7:53 PM 77.0 °F 46.4 °F 34% 29.81 in 10.0 mi South 12.7 mph 18.4 mph N/A   Clear
8:12 PM 75.2 °F 46.4 °F 36% 29.82 in 10.0 mi South 12.7 mph 23.0 mph N/A   Clear
8:32 PM 75.2 °F 46.4 °F 36% 29.81 in 10.0 mi South 13.8 mph 21.9 mph N/A   Clear
8:53 PM 75.2 °F 46.4 °F 36% 29.82 in 10.0 mi South 13.8 mph 21.9 mph N/A   Clear
9:12 PM 73.4 °F 48.2 °F 41% 29.81 in 10.0 mi SSE 13.8 mph 24.2 mph N/A   Clear
9:32 PM 73.4 °F 48.2 °F 41% 29.82 in 10.0 mi South 16.1 mph 24.2 mph N/A   Clear
9:53 PM 73.4 °F 48.2 °F 41% 29.81 in 10.0 mi South 19.6 mph 25.3 mph N/A   Clear
10:12 PM 73.4 °F 48.2 °F 41% 29.81 in 10.0 mi South 17.3 mph 23.0 mph N/A   Clear
10:33 PM 71.6 °F 48.2 °F 43% 29.81 in 10.0 mi South 17.3 mph 25.3 mph N/A   Clear
10:53 PM 71.6 °F 48.2 °F 43% 29.81 in 10.0 mi South 17.3 mph 27.6 mph N/A   Clear
11:12 PM 71.6 °F 48.2 °F 43% 29.82 in 10.0 mi South 17.3 mph 28.8 mph N/A   Clear
11:53 PM 71.6 °F 50.0 °F 46% 29.81 in 10.0 mi South 18.4 mph 24.2 mph N/A   Clear